Hourly Weather Roundup
Issued by NWS Central Illinois

Home | Current Version | Previous Version | Text Only | Print | Product List | Glossary On
Versions: 1 2 3 4 5 6 7 8 9 10 11 12 13 14 15 16 17 18 19 20 21 22 23 24 25 26 27 28 29 30 31 32 33 34 35 36 37 38 39 40 41 42 43 44 45 46 47 48 49 50
000
NZUS43 KILX 240010
HWRILX

Area Weather Roundup
National Weather Service Lincoln IL
600 PM CST THU NOV 23 2017

NOTE:  "FAIR" indicates few or no clouds below 12,000 feet, with
       no sigificant weather and/or obstructions to visibility.


CITY           SKY/WX    TMP DP  RH WIND       PRES   REMARKS
Bloomington    CLEAR     41  27  57 W7        29.97R
6HR MIN TEMP:  40; 6HR MAX TEMP:  49;

Champaign      CLEAR     37  28  70 S8        29.98R WCI  31
6HR MIN TEMP:  36; 6HR MAX TEMP:  50;

Danville       CLEAR     38  26  60 S5        29.96R WCI  35
6HR MIN TEMP:  38; 6HR MAX TEMP:  46;

Decatur        CLEAR     43  28  55 S3        29.98R
6HR MIN TEMP:  41; 6HR MAX TEMP:  51;

Effingham      CLEAR     44  26  48 SE5       29.99S
6HR MIN TEMP:  42; 6HR MAX TEMP:  52;

Flora          CLEAR     38  28  66 S6        29.99S WCI  33
6HR MIN TEMP:  38; 6HR MAX TEMP:  52;

Galesburg      CLEAR     35  29  79 CALM      29.95S
6HR MIN TEMP:  35; 6HR MAX TEMP:  49;

Jacksonville   CLEAR     42  29  58 CALM      29.96S
6HR MIN TEMP:  40; 6HR MAX TEMP:  52;

Lacon          CLEAR     34  26  75 CALM      29.95S
6HR MIN TEMP:  33; 6HR MAX TEMP:  48;

Lawrenceville  CLEAR     39  27  62 S6        30.01R WCI  35
6HR MIN TEMP:  38; 6HR MAX TEMP:  48;

Litchfield     CLEAR     41  31  67 SW3       29.97R
6HR MIN TEMP:  40; 6HR MAX TEMP:  52;

$$


CITY           SKY/WX    TMP DP  RH WIND       PRES   REMARKS
Lincoln        CLEAR     41  30  65 CALM      29.97R
6HR MIN TEMP:  41; 6HR MAX TEMP:  52;

Macomb         CLEAR     40  29  65 CALM      29.97R
6HR MIN TEMP:  38; 6HR MAX TEMP:  49;

Mattoon        CLEAR     41  27  57 S5        29.97R
6HR MIN TEMP:  41; 6HR MAX TEMP:  47;

Mt Carmel AP   CLEAR     39  24  54 S3        30.01R
6HR MIN TEMP:  39; 6HR MAX TEMP:  48;

Olney-Noble AP CLEAR     41  21  45 CALM      30.00S
Paris AP       CLEAR     34  28  80 SE6       30.00R WCI  29
6HR MIN TEMP:  33; 6HR MAX TEMP:  47;

Peoria         CLEAR     40  26  57 CALM      29.96R
6HR MIN TEMP:  40; 6HR MAX TEMP:  50;

Pontiac        CLEAR     38  29  69 W3        29.97R
6HR MIN TEMP:  38; 6HR MAX TEMP:  49;

Rantoul        CLEAR     39  32  75 SW5       29.97R
6HR MIN TEMP:  39; 6HR MAX TEMP:  50;

Robinson       CLEAR     35  26  67 S5        30.02R WCI  31
6HR MIN TEMP:  35; 6HR MAX TEMP:  47;

Springfield    CLEAR     41  28  60 NW3       29.98R
6HR MIN TEMP:  40; 6HR MAX TEMP:  53;

Taylorville    CLEAR     43  28  54 CALM      29.97R
6HR MIN TEMP:  41; 6HR MAX TEMP:  51;

$$

...REGIONAL REPORTS...


CITY           SKY/WX    TMP DP  RH WIND       PRES   REMARKS
Chicago O`Hare CLEAR     40  25  55 SW3       29.94R
Kankakee       CLEAR     39  28  65 SW5       29.97R
Moline         CLEAR     33  25  72 CALM      29.92F
Mount Sterling CLEAR     41  29  64 CALM      29.94S
Mount Vernon   CLEAR     38  26  62 CALM      29.99S
Pittsfield     CLEAR     44  30  57 CALM      29.96S
Quincy         CLEAR     46  29  51 CALM      29.94S
Rockford       PTCLDY    39  25  57 S5        29.93F
$$


CITY           SKY/WX    TMP DP  RH WIND       PRES   REMARKS
Burlington     CLEAR     40  30  67 CALM      29.93S
Cedar Rapids   CLEAR     40  28  62 CALM      29.90S
Des Moines     PTCLDY    46  31  55 SE7       29.89F
Kirksville     CLEAR     45  33  63 SW3       29.94R
Ottumwa        CLEAR     42  30  62 S3        29.92R
St Louis       CLEAR     48  29  47 NW5       29.97R
$$


CITY           SKY/WX    TMP DP  RH WIND       PRES   REMARKS
Terre Haute    CLEAR     37  22  54 S3        30.01R
Evansville     CLEAR     43  23  45 SE3       30.01F
Indianapolis   CLEAR     39  20  46 S6        29.99R WCI  35
Lafayette      CLEAR     39  25  57 S6        29.98R WCI  35
Madison        CLEAR     33  23  66 CALM      29.88S
Milwaukee      CLEAR     39  24  55 SW5       29.91S
$$





USA.gov is the U.S. government's official web portal to all federal, state and local government web resources and services.